Milton, FL

12:58 AM CDT on March 23, 2017 (GMT -0500)
Whiting Field Naval Air Station (South)

Weather History for KNDZ - May, 2014

Change the Weather History Date:

Saturday, May 24, 2014

  Actual Average (KNSE) Record (KNSE)
Temperature  
Mean Temperature 80 °F -  
Max Temperature 93 °F 83 °F 95 °F (2005)
Min Temperature 66 °F 64 °F 57 °F (2002)
Cooling Degree Days 14    
Growing Degree Days 30 (Base 50)    
Moisture  
Dew Point 66 °F    
Average Humidity 67    
Maximum Humidity 90    
Minimum Humidity 37    
Precipitation  
Precipitation 0.00 in - - ()
Sea Level Pressure  
Sea Level Pressure 30.03 in    
Wind  
Wind Speed 3 mph (WNW)    
Max Wind Speed 7 mph    
Max Gust Speed -    
Visibility 9 miles    
Events      
Averages and records for this station are not official NWS values.
T = Trace of Precipitation, MM = Missing Value Source: NWS Daily Summary

Daily Weather History Graph

Daily Weather History Graph

Search for Another Location

Airport or City:

Trip Planner

Search our weather history database for the weather conditions in past years. The results will help you decide how hot, cold, wet, or windy it might be!

Date:

Astronomy

May. 24, 2014 Rise Set
Actual Time 5:48 AM CDT 7:41 PM CDT
Civil Twilight 5:21 AM CDT 8:08 PM CDT
Nautical Twilight 4:49 AM CDT 8:41 PM CDT
Astronomical Twilight 4:14 AM CDT 9:15 PM CDT
Moon 2:59 AM CDT (5/24) 3:53 PM CDT (5/24)
Length of Visible Light 14h 46m
Length of Day
13h 53m
Waning Crescent, 18% of the Moon is Illuminated
May 24
Waning Crescent
May 28
New
Jun 5
First Quarter
Jun 12
Full
Jun 19
Last Quarter

Hourly Weather History & Observations

Time (CDT) Temp. Heat Index Dew Point Humidity Pressure Visibility Wind Dir Wind Speed Gust Speed Precip Events Conditions
12:24 AM - - - N/A% - - North - - N/A   Unknown
12:56 AM 71.1 °F - 66.0 °F 84% 30.02 in 9.0 mi WNW 4.6 mph - N/A   Clear
1:56 AM 71.1 °F - 66.0 °F 84% 30.03 in 9.0 mi WNW 3.5 mph - N/A   Clear
2:56 AM 69.1 °F - 64.9 °F 87% 30.02 in 7.0 mi WNW 3.5 mph - N/A   Clear
3:56 AM 71.1 °F - 64.9 °F 81% 30.03 in 8.0 mi Calm Calm - N/A   Clear
4:56 AM 68.0 °F - 64.0 °F 87% 30.04 in 5.0 mi Calm Calm - N/A   Clear
5:56 AM 66.0 °F - 63.0 °F 90% 30.05 in 3.0 mi Calm Calm - N/A   Clear
6:56 AM 70.0 °F - 66.9 °F 90% 30.06 in 5.0 mi NW 4.6 mph - N/A   Clear
7:56 AM 75.0 °F - 69.1 °F 82% 30.08 in 10.0 mi NW 4.6 mph - N/A   Clear
8:56 AM 78.1 °F - 69.1 °F 74% 30.09 in 10.0 mi NW 6.9 mph - N/A   Clear
9:00 AM - - - N/A% - - North - - N/A   Unknown
9:56 AM 82.9 °F 86.5 °F 69.1 °F 63% 30.08 in 10.0 mi NW 6.9 mph - N/A   Clear
10:56 AM 87.1 °F 89.9 °F 66.9 °F 51% 30.07 in 10.0 mi ENE 4.6 mph - N/A   Clear
11:56 AM 90.0 °F 92.4 °F 66.0 °F 45% 30.06 in 10.0 mi Variable 3.5 mph - N/A   Partly Cloudy
12:56 PM 88.0 °F 90.3 °F 66.0 °F 48% 30.04 in 10.0 mi Calm Calm - N/A   Clear
1:56 PM 90.0 °F 92.4 °F 66.0 °F 45% 30.03 in 10.0 mi North 4.6 mph - N/A   Clear
2:56 PM 93.0 °F 94.2 °F 63.0 °F 37% 30.01 in 10.0 mi Variable 4.6 mph - N/A   Clear
3:56 PM 90.0 °F 90.6 °F 63.0 °F 40% 30.01 in 10.0 mi Calm Calm - N/A   Clear
4:56 PM 89.1 °F 91.3 °F 66.0 °F 46% 30.01 in 10.0 mi SSW 5.8 mph - N/A   Clear
5:56 PM 84.9 °F 87.6 °F 66.9 °F 55% 30.00 in 10.0 mi SSW 4.6 mph - N/A   Clear
6:56 PM 82.9 °F 85.8 °F 68.0 °F 60% 30.00 in 10.0 mi South 4.6 mph - N/A   Clear
7:56 PM 81.0 °F 83.3 °F 66.9 °F 62% 30.01 in 10.0 mi South 3.5 mph - N/A   Clear
8:56 PM 79.0 °F - 66.9 °F 66% 30.01 in 10.0 mi Calm Calm - N/A   Clear
9:56 PM 77.0 °F - 66.9 °F 71% 30.02 in 10.0 mi Calm Calm - N/A   Clear
10:56 PM 77.0 °F - 66.9 °F 71% 30.03 in 10.0 mi Calm Calm - N/A   Clear
11:56 PM 73.9 °F - 68.0 °F 82% 30.03 in 10.0 mi WNW 4.6 mph - N/A   Clear